Weather History for KCSM - May, 2013

Change the Weather History Date:

Monday, May 6, 2013

  Actual Average Record
Temperature  
Mean Temperature 58 °F -  
Max Temperature 73 °F 76 °F 100 °F (2014)
Min Temperature 42 °F 52 °F 42 °F (2013)
Degree Days  
Heating Degree Days 8    
Growing Degree Days 8 (Base 50)    
Moisture  
Dew Point 47 °F    
Average Humidity 67    
Maximum Humidity 96    
Minimum Humidity 41    
Precipitation  
Precipitation 0.00 in - - ()
Sea Level Pressure  
Sea Level Pressure 30.08 in    
Wind  
Wind Speed 5 mph (SSE)    
Max Wind Speed 10 mph    
Max Gust Speed -    
Visibility 10 miles    
Events      
Averages and records for this station are not official NWS values.
T = Trace of Precipitation, MM = Missing Value Source: NWS Daily Summary

Daily Weather History Graph

Daily Weather History Graph

Search for Another Location

Airport or City:

Trip Planner

Search our weather history database for the weather conditions in past years. The results will help you decide how hot, cold, wet, or windy it might be!

Date:

Astronomy

May. 06, 2013 Rise Set
Actual Time 6:40 AM CDT 8:27 PM CDT
Civil Twilight 6:12 AM CDT 8:54 PM CDT
Nautical Twilight 5:39 AM CDT 9:28 PM CDT
Astronomical Twilight 5:03 AM CDT 10:03 PM CDT
Moon 4:36 AM CDT (5/6) 5:34 PM CDT (5/6)
Length of Visible Light 14h 42m
Length of Day
13h 47m
Waning Crescent, 11% of the Moon is Illuminated
May 6
Waning Crescent
May 9
New
May 17
First Quarter
May 24
Full
May 31
Last Quarter

Hourly Weather History & Observations

Time (CDT) Temp. Windchill Dew Point Humidity Pressure Visibility Wind Dir Wind Speed Gust Speed Precip Events Conditions
12:53 AM 50.0 °F - 46.0 °F 86% 30.12 in 10.0 mi SE 5.8 mph - N/A   Clear
1:53 AM 46.9 °F - 44.1 °F 90% 30.12 in 10.0 mi SSE 5.8 mph - N/A   Clear
2:53 AM 48.9 °F - 45.0 °F 86% 30.12 in 10.0 mi SSE 3.5 mph - N/A   Clear
3:53 AM 46.9 °F - 44.1 °F 90% 30.10 in 10.0 mi Calm Calm - N/A   Clear
4:53 AM 42.1 °F 38.4 °F 41.0 °F 96% 30.11 in 10.0 mi SSW 5.8 mph - N/A   Clear
5:53 AM 44.1 °F 39.5 °F 43.0 °F 96% 30.10 in 10.0 mi WSW 8.1 mph - N/A   Clear
6:53 AM 46.0 °F 44.8 °F 44.1 °F 93% 30.11 in 10.0 mi WSW 3.5 mph - N/A   Clear
7:53 AM 48.9 °F - 46.9 °F 93% 30.13 in 10.0 mi Calm Calm - N/A   Clear
8:53 AM 57.9 °F - 50.0 °F 75% 30.13 in 10.0 mi SSW 3.5 mph - N/A   Clear
9:53 AM 60.1 °F - 48.0 °F 64% 30.14 in 10.0 mi Variable 3.5 mph - N/A   Clear
10:53 AM 63.0 °F - 48.9 °F 60% 30.14 in 10.0 mi SW 6.9 mph - N/A   Clear
11:53 AM 66.0 °F - 48.0 °F 52% 30.13 in 10.0 mi Variable 3.5 mph - N/A   Clear
12:53 PM 69.1 °F - 48.0 °F 47% 30.11 in 10.0 mi Variable 4.6 mph - N/A   Clear
1:53 PM 69.1 °F - 48.0 °F 47% 30.10 in 10.0 mi Variable 4.6 mph - N/A   Clear
2:53 PM 70.0 °F - 48.9 °F 47% 30.07 in 10.0 mi East 10.4 mph - N/A   Clear
3:53 PM 71.1 °F - 48.0 °F 44% 30.05 in 10.0 mi SE 8.1 mph - N/A   Clear
4:53 PM 73.0 °F - 48.0 °F 41% 30.03 in 10.0 mi South 6.9 mph - N/A   Clear
5:53 PM 72.0 °F - 46.9 °F 41% 30.03 in 10.0 mi South 6.9 mph - N/A   Clear
6:53 PM 69.1 °F - 48.0 °F 47% 30.02 in 10.0 mi ESE 5.8 mph - N/A   Clear
7:53 PM 66.9 °F - 48.9 °F 52% 30.02 in 10.0 mi ESE 6.9 mph - N/A   Clear
8:53 PM 64.0 °F - 48.9 °F 58% 30.01 in 10.0 mi ESE 8.1 mph - N/A   Clear
9:53 PM 63.0 °F - 48.9 °F 60% 30.01 in 10.0 mi ESE 9.2 mph - N/A   Scattered Clouds
10:53 PM 63.0 °F - 51.1 °F 65% 30.03 in 10.0 mi SE 8.1 mph - N/A   Clear
11:53 PM 61.0 °F - 51.1 °F 70% 30.04 in 10.0 mi ESE 9.2 mph - N/A   Overcast